Regional Weather Roundup
Issued by NWS Goodland, KS

Home | Current Version | Previous Version | Graphics & Text | Print | Product List | Glossary On
Versions: 1 2 3 4 5 6 7 8 9 10 11 12 13 14 15 16 17 18 19 20 21 22 23 24 25 26 27 28 29 30 31 32 33 34 35 36 37 38 39 40 41 42 43 44 45 46 47 48 49 50
000
ASUS43 KGLD 252159
RWRGLD

GOODLAND FORECAST AREA HOURLY WEATHER ROUNDUP
NATIONAL WEATHER SERVICE GOODLAND KS
400 PM MDT SUN SEP 25 2016

...OFFICIAL OBSERVATIONS...

CITY           SKY/WX    TMP DP  RH WIND       PRES   REMARKS
GOODLAND KS    MOSUNNY   70  33  25 N22G29    30.31S
HILL CITY KS   SUNNY     74  35  24 N20G28    30.24S
IMPERIAL NEB   SUNNY     70  29  21 NW25G32   30.30S
MCCOOK NEB     SUNNY     72  21  14 NW23G32   30.26R
AKRON CO       MOSUNNY   66  30  26 N18       30.37R
BURLINGTON CO  SUNNY     69  32  25 N17       30.34S
LIMON CO       SUNNY     66  27  23 NW6       30.38F
$$

...UNOFFICIAL OBSERVATIONS...

CITY           SKY/WX    TMP DP  RH WIND       PRES   REMARKS
COLBY KS       SUNNY     72  39  30 N18G28    30.30S
LENORA KS        N/A     71  32  23 MISG        N/A
NORTON KS      SUNNY     73  16  11 NW17G26   30.23S
SHARON SPRINGS   N/A     71  37  29 N12G21      N/A
KIT CARSON CO    N/A     69  35  29 MISG        N/A
$$




USA.gov is the U.S. government's official web portal to all federal, state and local government web resources and services.